| time (UTC) | temp C | wind direction | speed KPH | gust KPH | rain 1hr cm | rain 24hr cm | rain mn cm | humidity % | barometer mb |
| 20260509235623 | 17 | 279 | 1.6 | 3.2 | 0.00 | 0.23 | 0.13 | 59 | |
| 20260509234554 | 18 | 279 | 0.0 | 3.2 | 0.00 | 0.23 | 0.13 | 58 | |
| 20260509233544 | 18 | 293 | 1.6 | 3.2 | 0.00 | 0.23 | 0.13 | 58 | |
| 20260509232533 | 18 | 271 | 0.0 | 1.6 | 0.00 | 0.23 | 0.13 | 56 | 987.8 |
| 20260509231523 | 18 | 356 | 1.6 | 4.8 | 0.00 | 0.23 | 0.13 | 56 | 987.9 |
| 20260509230614 | 18 | 262 | 0.0 | 3.2 | 0.00 | 0.23 | 0.13 | 56 | 987.8 |
| 20260509225604 | 18 | 290 | 1.6 | 4.8 | 0.00 | 0.23 | 0.13 | 57 | 987.8 |
| 20260509133047 | 10 | 278 | 0.0 | 1.6 | 0.08 | 0.25 | 0.13 | 96 | 989.3 |
| 20260509132037 | 10 | 229 | 0.0 | 3.2 | 0.05 | 0.23 | 0.10 | 96 | 989.3 |
| 20260509131107 | 10 | 283 | 1.6 | 3.2 | 0.05 | 0.23 | 0.10 | 96 | 989.3 |
| 20260509130017 | 10 | 274 | 0.0 | 1.6 | 0.03 | 0.20 | 0.08 | 96 | 989.3 |
| 20260509125108 | 10 | 223 | 0.0 | 1.6 | 0.00 | 0.18 | 0.05 | 96 | 989.4 |
| 20260509104606 | 9 | 0.0 | 0.0 | 0.00 | 0.18 | 0.05 | 97 | 989.1 | |
| 20260509103555 | 9 | 0.0 | 0.0 | 0.00 | 0.18 | 0.05 | 97 | 989.1 | |
| 20260509102546 | 8 | 0.0 | 0.0 | 0.00 | 0.18 | 0.05 | 96 | 989.1 | |
| 20260509101554 | 8 | 0.0 | 0.0 | 0.00 | 0.18 | 0.05 | 96 | 989.0 | |
| 20260509100545 | 8 | 0.0 | 0.0 | 0.03 | 0.18 | 0.05 | 96 | 989.1 | |
| 20260509095621 | 8 | 0.0 | 0.0 | 0.03 | 0.18 | 0.05 | 96 | 989.2 | |
| 20260509094626 | 8 | 0.0 | 0.0 | 0.03 | 0.18 | 0.05 | 96 | 989.4 | |
| 20260509093555 | 8 | 0.0 | 0.0 | 0.03 | 0.18 | 0.05 | 96 | 989.5 | |
| 20260509092545 | 8 | 0.0 | 0.0 | 0.03 | 0.18 | 0.05 | 96 | 989.6 | |
| 20260509091535 | 8 | 302 | 0.0 | 1.6 | 0.03 | 0.18 | 0.05 | 96 | 989.6 |
| 20260509090525 | 8 | 0.0 | 0.0 | 0.00 | 0.15 | 0.03 | 96 | 989.7 | |
| 20260509085515 | 8 | 0.0 | 0.0 | 0.00 | 0.15 | 0.03 | 96 | 989.8 | |
| 20260509084626 | 8 | 0.0 | 0.0 | 0.00 | 0.15 | 0.03 | 96 | 989.9 | |
| 20260509083556 | 8 | 0.0 | 0.0 | 0.00 | 0.15 | 0.03 | 96 | 990.0 | |
| 20260509082546 | 8 | 0.0 | 0.0 | 0.00 | 0.15 | 0.03 | 96 | 990.1 | |
| 20260509081536 | 8 | 0.0 | 0.0 | 0.03 | 0.15 | 0.03 | 96 | 989.9 | |
| 20260509080526 | 8 | 0.0 | 0.0 | 0.03 | 0.15 | 0.03 | 96 | 990.2 | |
| 20260509075516 | 8 | 0.0 | 0.0 | 0.03 | 0.15 | 0.03 | 96 | 990.1 | |
| 20260509074632 | 8 | 0.0 | 0.0 | 0.03 | 0.15 | 0.03 | 96 | 990.0 | |
| 20260509073557 | 8 | 278 | 0.0 | 1.6 | 0.03 | 0.15 | 0.03 | 96 | 990.2 |
| 20260509072552 | 8 | 0.0 | 0.0 | 0.03 | 0.15 | 0.03 | 96 | 990.2 | |
| 20260509071557 | 8 | 302 | 1.6 | 3.2 | 0.00 | 0.13 | 0.00 | 96 | 990.1 |
| 20260509070528 | 8 | 0.0 | 0.0 | 0.00 | 0.13 | 0.00 | 96 | 990.1 | |
| 20260509065537 | 8 | 0.0 | 0.0 | 0.00 | 0.13 | 0.00 | 96 | 990.2 | |
| 20260509064607 | 8 | 0.0 | 0.0 | 0.00 | 0.13 | 0.00 | 96 | 990.2 | |
| 20260509063559 | 8 | 0.0 | 0.0 | 0.00 | 0.13 | 0.00 | 96 | 990.4 | |
| 20260509062629 | 8 | 0.0 | 0.0 | 0.00 | 0.13 | 0.00 | 96 | 990.3 | |
| 20260509061537 | 8 | 0.0 | 0.0 | 0.00 | 0.13 | 0.00 | 96 | 990.6 | |
| 20260509060548 | 8 | 285 | 0.0 | 1.6 | 0.00 | 0.13 | 0.00 | 96 | 990.7 |
| 20260509055518 | 8 | 0.0 | 0.0 | 0.00 | 0.13 | 0.00 | 96 | 991.0 | |
| 20260509054609 | 8 | 0.0 | 0.0 | 0.00 | 0.13 | 0.00 | 96 | 991.1 | |
| 20260509053559 | 8 | 0.0 | 0.0 | 0.00 | 0.13 | 0.00 | 96 | 991.3 | |
| 20260509052548 | 8 | 0.0 | 0.0 | 0.00 | 0.13 | 0.00 | 96 | 991.4 | |
| 20260509051538 | 8 | 0.0 | 0.0 | 0.00 | 0.13 | 0.00 | 96 | 991.2 | |
| 20260509050550 | 8 | 0.0 | 0.0 | 0.00 | 0.13 | 0.00 | 96 | 991.5 | |
| 20260509045525 | 9 | 0.0 | 0.0 | 0.00 | 0.13 | 0.00 | 96 | 991.6 | |
| 20260509044610 | 9 | 0.0 | 0.0 | 0.00 | 0.13 | 0.00 | 96 | 991.7 | |
| 20260509043600 | 9 | 0.0 | 0.0 | 0.00 | 0.13 | 0.00 | 96 | 991.8 | |
| 20260509042752 | 9 | 0.0 | 0.0 | 0.00 | 0.13 | 0.00 | 96 | 992.0 | |
| 20260509041540 | 9 | 0.0 | 0.0 | 0.03 | 0.13 | 0.00 | 96 | 992.1 | |
| 20260509040531 | 9 | 0.0 | 0.0 | 0.03 | 0.13 | 0.00 | 95 | 992.2 | |
| 20260509035540 | 9 | 0.0 | 0.0 | 0.03 | 0.13 | 0.13 | 95 | 992.2 | |
| 20260509034612 | 9 | 0.0 | 0.0 | 0.03 | 0.13 | 0.13 | 95 | 992.4 | |
| 20260509033601 | 9 | 0.0 | 0.0 | 0.03 | 0.13 | 0.13 | 95 | 992.4 | |
| 20260509032046 | 9 | 0.0 | 0.0 | 0.05 | 0.13 | 0.13 | 95 | 992.5 | |
| 20260509031541 | 9 | 0.0 | 0.0 | 0.03 | 0.10 | 0.10 | 95 | 992.7 | |
| 20260509030532 | 9 | 0.0 | 0.0 | 0.03 | 0.10 | 0.10 | 95 | 992.8 | |
| 20260509025521 | 10 | 0.0 | 0.0 | 0.03 | 0.10 | 0.10 | 95 | 992.9 | |
| 20260509024613 | 10 | 0.0 | 0.0 | 0.05 | 0.10 | 0.10 | 95 | 993.2 | |
| 20260509023602 | 10 | 0.0 | 0.0 | 0.05 | 0.10 | 0.10 | 95 | 993.3 | |
| 20260509022552 | 10 | 0.0 | 0.0 | 0.03 | 0.08 | 0.08 | 94 | 993.3 | |
| 20260509021543 | 10 | 0.0 | 0.0 | 0.03 | 0.08 | 0.08 | 94 | 993.2 | |
| 20260509020533 | 10 | 0.0 | 0.0 | 0.03 | 0.08 | 0.08 | 94 | 993.0 | |
| 20260509015523 | 10 | 0.0 | 0.0 | 0.05 | 0.08 | 0.08 | 94 | 992.8 | |
| 20260509014612 | 10 | 0.0 | 0.0 | 0.03 | 0.05 | 0.05 | 94 | 992.6 | |
| 20260509013603 | 10 | 0.0 | 0.0 | 0.03 | 0.05 | 0.05 | 94 | 992.0 | |
| 20260509012553 | 10 | 0.0 | 0.0 | 0.03 | 0.05 | 0.05 | 94 | 991.6 | |
| 20260509011543 | 10 | 0.0 | 0.0 | 0.03 | 0.05 | 0.05 | 93 | 991.7 | |
| 20260509010533 | 10 | 0.0 | 0.0 | 0.03 | 0.05 | 0.05 | 93 | 991.5 | |
| 20260509005524 | 10 | 0.0 | 0.0 | 0.00 | 0.03 | 0.03 | 93 | 991.4 | |
| 20260509004614 | 10 | 0.0 | 0.0 | 0.00 | 0.03 | 0.03 | 93 | 991.5 | |
| 20260509003604 | 10 | 0.0 | 0.0 | 0.00 | 0.03 | 0.03 | 93 | 991.6 | |
| 20260509002554 | 10 | 0.0 | 0.0 | 0.00 | 0.03 | 0.03 | 93 | 991.3 | |
| 20260509001544 | 10 | 0.0 | 0.0 | 0.00 | 0.03 | 0.03 | 92 | 991.1 | |
| 20260509000534 | 10 | 0.0 | 0.0 | 0.00 | 0.03 | 0.03 | 92 | 991.1 |